Weather History for La Grande, OR

Change the Weather History Date:

Tuesday, October 9, 2012

  Actual Average Record
Temperature  
Mean Temperature 50 °F -  
Max Temperature 71 °F 62 °F 85 °F (1965)
Min Temperature 28 °F 34 °F 18 °F (1985)
Degree Days  
Heating Degree Days 16    
Moisture  
Dew Point 23 °F    
Average Humidity 40    
Maximum Humidity 55    
Minimum Humidity 23    
Precipitation  
Precipitation 0.00 in - - ()
Sea Level Pressure  
Sea Level Pressure 30.03 in    
Wind  
Wind Speed 4 mph (NNW)    
Max Wind Speed 12 mph    
Max Gust Speed -    
Visibility 10 miles    
Events      
Averages and records for this station are not official NWS values.
T = Trace of Precipitation, MM = Missing Value Source: NWS Daily Summary

Daily Weather History Graph

Daily Weather History Graph

Search for Another Location

Airport:

Trip Planner

Search our weather history database for the weather conditions in past years. The results will help you decide how hot, cold, wet, or windy it might be!

Date:

Astronomy

Oct. 09, 2012 Rise Set
Actual Time 7:01 AM PDT 6:16 PM PDT
Civil Twilight 6:31 AM PDT 6:45 PM PDT
Nautical Twilight 5:57 AM PDT 7:20 PM PDT
Astronomical Twilight 5:22 AM PDT 7:54 PM PDT
Moon 12:25 AM PDT (10/9) 3:01 PM PDT (10/9)
Length of Visible Light 12h 14m
Length of Day
11h 15m
Waning Crescent, 35% of the Moon is Illuminated
Oct 9
Waning Crescent
Oct 15
New
Oct 21
First Quarter
Oct 29
Full
Nov 6
Last Quarter

Hourly Weather History & Observations

Time (PDT) Temp. Windchill Dew Point Humidity Pressure Visibility Wind Dir Wind Speed Gust Speed Precip Events Conditions
12:15 AM 39.2 °F 37.0 °F 17.6 °F 42% 30.00 in 10.0 mi South 3.5 mph - N/A   Clear
12:55 AM 37.4 °F - 15.8 °F 41% 30.00 in 10.0 mi Calm Calm - N/A   Clear
1:15 AM 37.4 °F 34.9 °F 17.6 °F 45% 30.00 in 10.0 mi SSW 3.5 mph - N/A   Clear
1:35 AM 35.6 °F - 17.6 °F 48% 30.01 in 10.0 mi Calm Calm - N/A   Clear
1:55 AM 35.6 °F - 15.8 °F 44% 30.02 in 10.0 mi Calm Calm - N/A   Clear
2:15 AM 35.6 °F - 15.8 °F 44% 30.03 in 10.0 mi Calm Calm - N/A   Clear
2:35 AM 35.6 °F - 17.6 °F 48% 30.03 in 10.0 mi Calm Calm - N/A   Clear
2:55 AM 35.6 °F 32.8 °F 15.8 °F 44% 30.03 in 10.0 mi SSE 3.5 mph - N/A   Clear
3:15 AM 33.8 °F - 12.2 °F 41% 30.03 in 10.0 mi Calm Calm - N/A   Clear
3:35 AM 35.6 °F 31.7 °F 15.8 °F 44% 30.03 in 10.0 mi ESE 4.6 mph - N/A   Clear
3:55 AM 39.2 °F - 19.4 °F 45% 30.04 in 10.0 mi Calm Calm - N/A   Clear
4:15 AM 33.8 °F - 12.2 °F 41% 30.05 in 10.0 mi Calm Calm - N/A   Clear
4:55 AM 30.2 °F - 14.0 °F 51% 30.05 in 10.0 mi Calm Calm - N/A   Clear
5:15 AM 30.2 °F - 14.0 °F 51% 30.05 in 10.0 mi Calm Calm - N/A   Clear
5:35 AM 30.2 °F 26.7 °F 14.0 °F 51% 30.05 in 10.0 mi ENE 3.5 mph - N/A   Clear
5:55 AM 28.4 °F - 14.0 °F 55% 30.06 in 10.0 mi Calm Calm - N/A   Clear
6:15 AM 30.2 °F - 15.8 °F 55% 30.07 in 10.0 mi Calm Calm - N/A   Clear
6:35 AM 30.2 °F 26.7 °F 15.8 °F 55% 30.07 in 10.0 mi WNW 3.5 mph - N/A   Clear
6:55 AM 30.2 °F - 15.8 °F 55% 30.08 in 10.0 mi Calm Calm - N/A   Clear
7:35 AM 28.4 °F - 12.2 °F 51% 30.09 in 6.0 mi Calm Calm - N/A   Clear
3:15 PM 71.6 °F - 32.0 °F 23% 30.01 in 10.0 mi NNE 9.2 mph - N/A   Clear
3:35 PM 71.6 °F - 32.0 °F 23% 30.01 in 10.0 mi NNE 6.9 mph - N/A   Clear
3:55 PM 71.6 °F - 32.0 °F 23% 30.01 in 10.0 mi North 9.2 mph - N/A   Clear
4:15 PM 71.6 °F - 32.0 °F 23% 30.00 in 10.0 mi North 9.2 mph - N/A   Clear
4:35 PM 71.6 °F - 32.0 °F 23% 30.00 in 10.0 mi NNW 9.2 mph - N/A   Clear
4:55 PM 71.6 °F - 32.0 °F 23% 30.00 in 10.0 mi NW 10.4 mph - N/A   Clear
5:15 PM 69.8 °F - 32.0 °F 25% 30.00 in 10.0 mi NW 11.5 mph - N/A   Clear
5:35 PM 69.8 °F - 30.2 °F 23% 30.00 in 10.0 mi NW 10.4 mph - N/A   Clear
5:55 PM 66.2 °F - 30.2 °F 26% 30.00 in 10.0 mi WNW 8.1 mph - N/A   Clear
6:15 PM 62.6 °F - 28.4 °F 27% 30.00 in 10.0 mi NW 6.9 mph - N/A   Clear
6:35 PM 60.8 °F - 28.4 °F 29% 30.01 in 7.0 mi NW 8.1 mph - N/A   Clear
6:55 PM 60.8 °F - 28.4 °F 29% 30.01 in 10.0 mi WNW 6.9 mph - N/A   Clear
7:15 PM 55.4 °F - 26.6 °F 33% 30.02 in 9.0 mi North 5.8 mph - N/A   Clear
7:35 PM 55.4 °F - 28.4 °F 36% 30.02 in 10.0 mi North 6.9 mph - N/A   Clear
7:55 PM 57.2 °F - 30.2 °F 36% 30.02 in 10.0 mi NW 6.9 mph - N/A   Clear
8:15 PM 55.4 °F - 28.4 °F 36% 30.03 in 10.0 mi NNW 9.2 mph - N/A   Clear
8:35 PM 55.4 °F - 30.2 °F 38% 30.03 in 10.0 mi NW 10.4 mph - N/A   Clear
8:55 PM 55.4 °F - 28.4 °F 36% 30.03 in 10.0 mi West 5.8 mph - N/A   Clear
9:15 PM 53.6 °F - 26.6 °F 35% 30.03 in 10.0 mi NW 4.6 mph - N/A   Clear
9:35 PM 51.8 °F - 26.6 °F 38% 30.03 in 10.0 mi NNW 8.1 mph - N/A   Clear
9:55 PM 51.8 °F - 28.4 °F 41% 30.03 in 10.0 mi NW 8.1 mph - N/A   Clear
10:15 PM 51.8 °F - 26.6 °F 38% 30.03 in 10.0 mi SSW 3.5 mph - N/A   Clear
10:35 PM 46.4 °F 44.3 °F 26.6 °F 46% 30.03 in 10.0 mi ESE 4.6 mph - N/A   Clear
10:55 PM 44.6 °F 42.2 °F 26.6 °F 49% 30.03 in 10.0 mi East 4.6 mph - N/A   Clear
11:15 PM 42.8 °F - 24.8 °F 49% 30.03 in 10.0 mi Calm Calm - N/A   Clear
11:35 PM 42.8 °F 41.1 °F 26.6 °F 53% 30.02 in 10.0 mi SE 3.5 mph - N/A   Clear
11:55 PM 44.6 °F 43.1 °F 26.6 °F 49% 30.02 in 10.0 mi East 3.5 mph - N/A   Clear